Location: Borowce
(50.8255°N, 19.6209°E)
Time: 07:55:49
(UTC+00:00)

Cosmos 1733 - Pass Details

Date: 19 May 2025
Orbit: 375 x 381 km, 82.5° (Epoch: 15 June)

Event Time Altitude Azimuth Distance (km) Brightness Sun altitude
Rises 20:32:03 0° 339° (NNW) 2,309 8.3 -14.0°
Reaches altitude 10° 20:34:17 10° 325° (NW) 1,445 6.9 -14.2°
Maximum altitude 20:36:53 24° 269° (W) 866 4.6 -14.4°
Enters shadow 20:39:16 11° 215° (SW) 1,362 5.1 -14.5°
